Regional Weather Roundup
Issued by NWS

Home | Current Version | Previous Version | Graphics & Text | Print | Product List | Glossary On
Versions: 1 2 3 4 5 6 7 8 9 10 11 12 13 14 15 16 17 18 19 20 21 22 23 24 25 26 27 28 29 30 31 32 33 34 35 36 37 38 39 40 41 42 43 44 45 46 47 48 49 50
000
ASUS45 KBOU 171407
RWRCO

WEATHER ROUNDUP FOR COLORADO
NATIONAL WEATHER SERVICE DENVER/BOULDER CO
800 AM MDT WED SEP 17 2014

NOTE: "FAIR" INDICATES FEW OR NO CLOUDS BELOW 12000 FEET WITH NO
SIGNIFICANT WEATHER AND/OR OBSTRUCTIONS TO VISIBILITY.

COZ001>005-013-030-031-171500-
...NORTHWEST COLORADO...

CITY           SKY/WX    TMP DP  RH WIND       PRES   REMARKS
CRAIG          SUNNY     46  41  82 CALM      30.21R
HAYDEN         SUNNY     50  36  57 E10       30.23R
MEEKER         SUNNY     50  40  68 CALM      30.22R
MOUNT WERNER   NOT AVBL
STEAMBOAT SPGS SUNNY     44  37  74 CALM      30.26R
WALDEN         MOSUNNY   41  32  70 CALM      30.33R
$$

COZ006>008-011-171500-
...WEST CENTRAL VALLEYS...

CITY           SKY/WX    TMP DP  RH WIND       PRES   REMARKS
GRAND JUNCTION MOSUNNY   60  42  51 S9        30.11R
MONTROSE       PTSUNNY   54  43  66 S6        30.20R
EAGLE          MOSUNNY   45  39  81 CALM      30.32R
RIFLE          SUNNY     51  43  74 E3        30.19R
DELTA          PTSUNNY   59  42  52 E6        30.16R
NUCLA          PTSUNNY   55  41  58 CALM      30.23R
$$

COZ017>023-064>068-171500-
...SOUTHWEST COLORADO...

CITY           SKY/WX    TMP DP  RH WIND       PRES   REMARKS
DURANGO        CLOUDY    53  45  74 CALM      30.24S
CORTEZ         SUNNY     53  49  86 CALM      30.20R
PAGOSA SPRINGS CLOUDY    51  44  78 CALM      30.30S
TELLURIDE      NOT AVBL
WOLF CREEK PAS CLOUDY    43  36  75 NE10      30.57R
$$

COZ009-010-012-014-032>034-037-058>063-171500-
...CENTRAL COLORADO...

CITY           SKY/WX    TMP DP  RH WIND       PRES   REMARKS
ASPEN          PTSUNNY   47  37  68 CALM        N/A
BUENA VISTA    PTSUNNY   52  34  50 NW9       30.34S
COPPER MTN     PTSUNNY   54  30  40 SW5       30.59S
BERTHOUD PASS  FAIR      41  39  93 NW13      30.63R
COTTONWOOD PAS PTSUNNY   55  30  38 CALM      30.45R
GUNNISON       PTSUNNY   43  34  70 CALM      30.37R
KREMMLING      CLOUDY    36  32  87 CALM      30.36S
LEADVILLE      PTSUNNY   42  32  67 CALM      30.45R
MONARCH PASS   PTSUNNY   46  32  57 W7        30.67
SALIDA         PTSUNNY   54  36  51 NW6       30.39S
SUNLIGHT       MOSUNNY   54  34  47 NE3       30.52R
WILKERSON PASS NOT AVBL
$$

COZ069>075-171500-
...SAN LUIS VALLEY/SANGRE DE CRISTO MOUNTAINS...

CITY           SKY/WX    TMP DP  RH WIND       PRES   REMARKS
ALAMOSA        PTSUNNY   49  42  77 N7        30.30R
LA VETA PASS   NOT AVBL
SAGUACHE       PTSUNNY   52  34  50 NW15      30.33S
$$

COZ035-036-038>040-171500-
...NORTHERN COLORADO FRONT RANGE...

CITY           SKY/WX    TMP DP  RH WIND       PRES   REMARKS
DENVER INTL AP PTSUNNY   62  41  46 SW12      30.10R
DMNS CITY PARK   N/A     62  42  48 S3        30.10S
AURORA         PTSUNNY   62  41  46 S9        30.12S
FRONT RANGE AP NOT AVBL
ERIE MUNI ARPT PTSUNNY   57  46  68 CALM      30.08S
BOULDER MUN AP PTSUNNY   64  36  34 CALM      30.08S
CENTENNIAL     PTSUNNY   61  43  51 SW7       30.14R
BROOMFIELD     PTSUNNY   63  39  42 SW5       30.12R
FORT COLLINS   MOSUNNY   59  45  58 NE3       30.10R
LONGMONT       MOSUNNY   58  48  69 CALM      30.10S
$$

COZ041-046-047-076>085-087-088-171500-
...PIKES PEAK/PALMER DIVIDE AND SOUTHERN FOOTHILLS...

CITY           SKY/WX    TMP DP  RH WIND       PRES   REMARKS
COLO. SPRINGS  PTSUNNY   63  39  41 NW3       30.17R
A. F. ACADEMY  MOSUNNY   56  40  54 N9        30.19S
ELLICOTT       NOT AVBL
FALCON         SUNNY     65  40  40 NW5       30.22S
FORT CARSON    SUNNY     63  40  42 N12       30.13S
LIMON          MOSUNNY   61  42  49 CALM      30.10S
MONUMENT HILL  MOSUNNY   61  36  39 SW6       30.22R
TRINIDAD       PTSUNNY   62  46  55 W13       30.14R
$$

COZ042>045-048>051-090-091-171500-
...NORTHEAST COLORADO...

CITY           SKY/WX    TMP DP  RH WIND       PRES   REMARKS
GREELEY ARPT   MOSUNNY   54  43  66 NW3       30.08R
AKRON          SUNNY     64  44  48 W15       30.03S
BURLINGTON     SUNNY     62  51  67 NW12      30.03R
WRAY           SUNNY     58  50  75 SW6       29.99S
STERLING       SUNNY     54  50  87 S5        30.00S
HOLYOKE        SUNNY     59  54  82 S5        29.98F
FORT MORGAN    SUNNY     53  45  74 SW6       30.05R
$$

COZ086-089-092>099-171500-
...SOUTHEAST COLORADO...

CITY           SKY/WX    TMP DP  RH WIND       PRES   REMARKS
PUEBLO         MOSUNNY   60  40  47 CALM      30.07R
LA JUNTA       MOSUNNY   59  44  57 W8        30.04R
LAMAR          SUNNY     57  51  80 W6        30.00R
SPRINGFIELD      N/A     65  55  70 CALM      30.04R
$$



USA.gov is the U.S. government's official web portal to all federal, state and local government web resources and services.